Вернуться в каталог

NOAA 16 DEB

АктивенSSO
NORAD 42386·DEBRIS·🇺🇸 United States

Запущен Sep 21, 2000 с Vandenberg Space Force Base

Loading…

Ближайшие Пролёты (ближайшие 24 часа)

TLE

СвежийSource: Space-Track

Эпоха: Sep 13, 2026, 12:19 UTC

1 42386U 00055SE  26256.51376469  .00002936  00000-0  10171-2 0  9997
2 42386  98.6881 351.3721 0018318 229.3604 130.5990 14.36326351548024

Отслеживайте NOAA 16 DEB в реальном времени с AllMySat

Download on the App Store